Total_Precipitation_Accumulation
2.45 2.78 3.13 3.46 3.96 4.05 3.94 4.02 4.21 4.45 4.61 4.91 5.02 5.29 5.60 5.79 5.96 5.92 5.70 5.74 5.76 5.86 5.94 5.75 5.61 5.46 5.42 5.35 5.33 5.20 4.97 4.69 4.67 4.59 4.19 3.63 3.39 3.39 3.35 3.37 3.44 3.46 3.40
2.69 2.89 3.08 3.50 4.02 4.26 4.31 4.35 4.54 4.88 5.11 5.40 5.87 6.15 6.44 6.69 6.89 6.94 6.48 6.22 6.09 5.98 5.89 6.03 5.97 5.82 5.73 5.58 5.39 5.29 5.10 4.72 4.64 4.63 4.60 4.08 3.74 3.31 2.91 2.92 2.99 3.15 3.33
2.85 2.93 3.01 3.42 3.78 4.03 4.21 4.43 4.69 5.17 5.74 6.12 6.54 6.87 7.10 7.14 6.94 6.64 6.58 6.38 6.21 6.09 5.88 5.79 5.64 5.57 5.47 5.43 5.30 5.09 4.93 4.70 4.54 4.48 4.68 4.35 3.90 3.45 3.12 2.73 2.69 2.85 2.99
2.74 2.89 3.02 3.32 3.67 3.97 4.16 4.53 5.09 5.82 6.37 6.77 7.30 7.81 7.93 7.65 7.30 6.85 6.39 6.13 5.90 5.62 5.37 5.30 5.25 5.15 4.81 4.69 4.56 4.52 4.39 4.25 4.05 4.09 3.97 3.84 3.69 3.71 3.61 3.30 3.05 2.99 2.98
2.42 2.68 2.84 3.07 3.58 3.89 4.14 4.51 5.13 5.90 6.61 7.40 8.01 8.43 8.28 7.89 7.46 6.76 6.17 5.71 5.35 5.00 4.72 4.63 4.55 4.33 3.94 3.66 3.60 3.80 3.82 3.78 3.69 3.71 3.69 3.71 3.57 3.45 3.46 3.43 3.34 3.26 3.07
2.17 2.31 2.51 2.87 3.40 3.69 3.87 4.24 4.90 5.69 6.35 6.93 7.44 7.69 7.56 7.35 6.80 6.11 5.48 5.08 4.78 4.44 4.06 3.74 3.55 3.31 3.12 2.96 2.99 3.12 3.18 3.40 3.50 3.63 3.62 3.63 3.55 3.35 3.34 3.24 3.21 3.28 3.16
2.05 2.08 2.25 2.54 2.97 3.12 3.46 3.85 4.32 5.00 5.44 5.75 6.12 6.33 6.44 6.23 5.88 5.38 4.91 4.49 4.03 3.67 3.34 3.04 2.96 2.84 2.74 2.69 2.72 2.78 2.76 2.87 3.05 3.18 3.29 3.35 3.32 3.29 3.33 3.42 3.37 3.23 3.05
2.10 2.10 2.27 2.48 2.75 2.93 3.07 3.21 3.50 3.90 4.07 4.12 4.36 4.65 4.71 4.67 4.52 4.23 3.85 3.57 3.23 2.87 2.67 2.44 2.29 2.28 2.36 2.30 2.43 2.50 2.53 2.53 2.57 2.63 2.91 3.02 3.00 3.04 3.03 3.08 3.24 3.30 3.10
1.94 2.11 2.23 2.26 2.27 2.31 2.38 2.48 2.65 2.81 2.88 2.97 3.06 3.22 3.26 3.25 3.20 3.07 2.80 2.59 2.44 2.16 2.02 1.94 1.93 1.90 1.97 2.11 2.17 2.15 2.18 2.30 2.33 2.38 2.55 2.55 2.50 2.59 2.68 2.80 2.96 3.19 3.17
1.78 1.96 2.11 2.10 2.09 2.00 2.05 2.13 2.23 2.30 2.31 2.37 2.38 2.33 2.37 2.38 2.39 2.27 2.14 2.08 2.00 1.87 1.82 1.75 1.71 1.68 1.69 1.73 1.84 1.90 1.94 1.98 2.11 2.21 2.25 2.26 2.20 2.25 2.34 2.54 2.71 2.80 2.88
1.77 1.96 1.98 1.93 1.95 1.90 1.92 1.98 1.97 1.99 1.97 1.93 1.97 1.96 1.88 1.90 1.97 1.96 1.85 1.83 1.78 1.65 1.60 1.54 1.46 1.41 1.42 1.49 1.61 1.65 1.69 1.76 1.87 1.98 2.00 2.04 2.03 2.12 2.15 2.20 2.25 2.39 2.50
1.91 1.91 1.85 1.80 1.75 1.80 1.84 1.91 1.86 1.81 1.86 1.75 1.69 1.69 1.74 1.71 1.73 1.71 1.60 1.59 1.64 1.57 1.54 1.44 1.33 1.25 1.25 1.30 1.35 1.37 1.41 1.57 1.63 1.69 1.76 1.73 1.77 1.86 1.84 1.91 1.97 2.06 2.18
2.31 2.13 1.93 1.86 1.81 1.77 1.73 1.64 1.65 1.64 1.68 1.69 1.64 1.59 1.64 1.68 1.67 1.61 1.59 1.55 1.59 1.57 1.47 1.32 1.24 1.19 1.16 1.18 1.24 1.29 1.30 1.38 1.46 1.48 1.55 1.56 1.61 1.58 1.51 1.58 1.70 1.76 1.81
2.52 2.37 2.13 2.05 1.96 1.86 1.78 1.68 1.65 1.53 1.51 1.54 1.57 1.61 1.65 1.69 1.69 1.70 1.70 1.63 1.53 1.47 1.40 1.34 1.25 1.20 1.15 1.16 1.17 1.19 1.30 1.35 1.35 1.34 1.36 1.33 1.34 1.38 1.43 1.46 1.63 1.71 1.84
2.38 2.34 2.28 2.24 2.16 1.97 1.87 1.74 1.64 1.51 1.48 1.44 1.48 1.55 1.60 1.63 1.58 1.63 1.64 1.61 1.59 1.47 1.41 1.35 1.29 1.17 1.05 0.98 1.02 1.06 1.13 1.24 1.27 1.28 1.22 1.19 1.24 1.31 1.32 1.28 1.42 1.58 1.75
2.50 2.39 2.29 2.21 2.23 2.07 1.93 1.79 1.70 1.65 1.59 1.54 1.50 1.47 1.49 1.47 1.45 1.45 1.48 1.43 1.41 1.42 1.38 1.27 1.16 1.08 0.95 0.97 0.95 0.99 1.08 1.17 1.21 1.19 1.18 1.13 1.12 1.13 1.15 1.12 1.21 1.40 1.53
2.70 2.49 2.41 2.30 2.25 2.28 2.21 2.05 1.87 1.76 1.53 1.45 1.41 1.33 1.30 1.29 1.32 1.29 1.31 1.35 1.43 1.42 1.34 1.23 1.17 1.13 1.05 0.93 0.83 0.88 1.00 1.14 1.13 1.14 1.20 1.05 0.95 1.05 1.06 1.08 1.08 1.12 1.17
2.91 2.65 2.47 2.36 2.31 2.29 2.21 1.99 1.83 1.64 1.47 1.41 1.36 1.25 1.18 1.18 1.28 1.24 1.26 1.33 1.36 1.34 1.34 1.30 1.33 1.34 1.12 0.89 0.75 0.85 1.04 1.15 1.04 1.00 1.07 1.14 1.14 1.06 1.04 1.05 1.09 1.11 1.10
2.94 2.75 2.52 2.39 2.33 2.18 2.07 1.93 1.68 1.56 1.48 1.37 1.31 1.17 1.11 1.17 1.20 1.15 1.17 1.27 1.25 1.25 1.27 1.29 1.34 1.31 1.18 0.98 0.81 0.85 1.00 1.11 1.08 1.04 0.99 0.98 1.01 0.99 1.01 1.11 1.27 1.31 1.28
2.62 2.54 2.33 2.19 2.18 2.04 1.92 1.92 1.78 1.57 1.47 1.36 1.29 1.18 1.16 1.18 1.20 1.22 1.20 1.18 1.16 1.14 1.14 1.19 1.28 1.23 1.12 0.94 0.76 0.76 0.81 0.94 1.09 1.20 1.17 1.09 1.00 0.96 1.01 1.15 1.35 1.41 1.38
2.13 2.16 2.13 2.11 2.01 1.82 1.79 1.96 2.06 1.84 1.50 1.37 1.31 1.30 1.30 1.25 1.23 1.27 1.24 1.18 1.08 1.09 1.14 1.15 1.21 1.24 1.06 0.85 0.72 0.74 0.78 0.88 1.02 1.11 1.15 1.10 1.04 1.02 1.05 1.13 1.29 1.38 1.39
1.76 1.90 2.05 2.02 1.97 1.85 1.80 1.81 1.87 1.82 1.63 1.51 1.47 1.39 1.30 1.22 1.19 1.29 1.23 1.18 1.21 1.18 1.20 1.18 1.18 1.12 0.94 0.74 0.67 0.70 0.73 0.78 0.91 1.04 1.03 1.05 1.02 1.00 1.05 1.07 1.21 1.37 1.55
1.67 1.76 1.85 1.87 1.85 1.75 1.77 1.78 1.71 1.56 1.54 1.65 1.59 1.46 1.31 1.24 1.25 1.31 1.26 1.17 1.24 1.18 1.10 1.05 1.08 1.01 0.88 0.77 0.68 0.68 0.69 0.69 0.74 0.84 0.91 0.92 0.91 0.96 1.09 1.17 1.25 1.40 1.66
1.50 1.60 1.71 1.76 1.73 1.59 1.57 1.58 1.50 1.50 1.55 1.56 1.50 1.47 1.39 1.25 1.20 1.19 1.15 1.12 1.13 1.18 1.15 1.06 1.03 0.93 0.84 0.73 0.63 0.62 0.63 0.62 0.63 0.70 0.83 0.94 1.01 1.08 1.22 1.41 1.51 1.54 1.64
1.37 1.44 1.63 1.70 1.60 1.45 1.35 1.30 1.41 1.52 1.60 1.50 1.34 1.30 1.24 1.17 1.15 1.10 1.03 0.99 0.92 0.94 1.01 0.97 0.87 0.79 0.73 0.66 0.67 0.66 0.64 0.63 0.65 0.70 0.82 1.04 1.19 1.29 1.32 1.38 1.46 1.49 1.46
1.26 1.37 1.43 1.49 1.43 1.34 1.29 1.21 1.29 1.40 1.45 1.37 1.28 1.21 1.12 1.06 0.99 0.97 0.97 0.99 0.90 0.81 0.80 0.82 0.76 0.66 0.65 0.64 0.63 0.62 0.62 0.68 0.74 0.76 0.91 1.07 1.17 1.25 1.32 1.35 1.35 1.32 1.29